[Iaude] MPEC G204: 2024 GR5 [a=2.62,e=0.57,i=14.8,H=23.7]
    mpec at cfa.harvard.edu 
    mpec at cfa.harvard.edu
       
    Sun Apr 14 11:07:53 EDT 2024
    
    
  
M.P.E.C. 2024-G204                               Issued 2024 April 14, 15:06 UT
     The Minor Planet Electronic Circulars contain information on unusual
         minor planets, routine data on comets and natural satellites,
         and occasional editorial announcements.  They are published
    on behalf of Division F of the International Astronomical Union by the
          Minor Planet Center, Smithsonian Astrophysical Observatory,
                          Cambridge, MA 02138, U.S.A.
			  
             Prepared using the Tamkin Foundation Computer Network
                              MPC at CFA.HARVARD.EDU
            URL https://www.minorplanetcenter.net/    ISSN 1523-6714
                                    2024 GR5                                    
Observations:
     K24G05R*1C2024 04 12.23665410 47 57.206+08 35 40.24         21.63GVEG204G96
     K24G05R 1C2024 04 12.24227810 47 59.701+08 36 02.92         21.28GVEG204G96
     K24G05R 1C2024 04 12.24790410 48 02.286+08 36 25.02         20.03GVEG204G96
     K24G05R 1C2024 04 12.25352410 48 04.820+08 36 49.00         21.80GVEG204G96
     K24G05R KC2024 04 12.27478110 48 14.425+08 38 14.93         21.08GVEG204I52
     K24G05R KC2024 04 12.27648010 48 15.188+08 38 22.20         21.37GVEG204I52
     K24G05R KC2024 04 12.27817910 48 15.977+08 38 28.64         20.99GVEG204I52
     K24G05R KC2024 04 12.27988210 48 16.729+08 38 35.84         20.73GVEG204I52
     K24G05R  C2024 04 12.29560110 48 23.752+08 39 38.33         20.8 GVEG204H01
     K24G05R  C2024 04 12.29883710 48 25.226+08 39 51.46         20.8 GVEG204H01
     K24G05R  C2024 04 12.31255510 48 31.481+08 40 46.90         20.8 GVEG204H01
     K24G05R  C2024 04 12.31726010 48 33.644+08 41 06.07         21.1 GVEG204H01
     K24G05R KC2024 04 12.33826910 48 43.326+08 42 33.05         20.92GVEG204I52
     K24G05R KC2024 04 12.34187410 48 45.004+08 42 47.34         21.31GVEG204I52
     K24G05R 1C2024 04 12.85114 10 52 47.03 +09 16 53.1          21.2 VXEG204033
     K24G05R 1C2024 04 12.85310 10 52 48.04 +09 17 00.0          21.1 VXEG204033
     K24G05R KC2024 04 12.92774 10 53 21.92 +09 22 02.5          21.5 GVEG204204
     K24G05R KB2024 04 12.99436410 53 52.59 +09 26 28.2          20.6 GXEG204I93
     K24G05R KB2024 04 13.00694410 53 58.37 +09 27 17.9          20.8 GXEG204I93
     K24G05R KC2024 04 13.08510310 54 37.68 +09 32 35.2          21.7 GVEG204H21
     K24G05R KC2024 04 13.09209710 54 40.87 +09 33 03.2          21.4 GVEG204H21
     K24G05R KC2024 04 13.09498710 54 42.16 +09 33 15.2          21.3 GVEG204H21
     K24G05R KC2024 04 13.31713910 56 23.831+09 47 56.90         22.87GVEG204I52
     K24G05R KC2024 04 13.31862710 56 24.493+09 48 01.62         21.84GVEG204I52
     K24G05R KC2024 04 13.32166210 56 25.894+09 48 13.79         21.51GVEG204I52
     K24G05R KC2024 04 14.24032311 03 37.890+10 47 25.62         22.33GVEG204I52
     K24G05R KC2024 04 14.24254511 03 38.873+10 47 34.51         21.42GVEG204I52
     K24G05R KC2024 04 14.24476211 03 39.820+10 47 42.86         21.93GVEG204I52
Observer details:
033 Karl Schwarzschild Observatory, Tautenburg.  Observers S. Melnikov, C.
    Hogner, F. Ludwig, M. Hartmann, B. Stecklum.  Measurer B. Stecklum.
    1.34-m f/3 Schmidt + CCD.
204 Schiaparelli Observatory.  Observer L. Buzzi.  0.84-m f/3.5 reflector +
    CMO.
G96 Mt. Lemmon Survey.  Observer H. Groeller.  Measurers T. Beuden, V. F.
    Carvajal, D. Fay, J. B. Fazekas, D. C. Fuls, A. R. Gibbs, A. D. Grauer, H.
    Groeller, J. K. Hogan, R. A. Kowalski, S. M. Larson, G. J. Leonard, D.
    Rankin, R. L. Seaman, F. C. Shelly, K. W. Wierzchos.  1.5-m reflector +
    10K CCD.
H01 Magdalena Ridge Observatory, Socorro.  Observers W. H. Ryan, E. V. Ryan.
    Measurer W. H. Ryan.  2.4-m f/8.9 Ritchey-Chretien + CCD.
H21 Astronomical Research Observatory, Westfield.  Observer R. Holmes.
    Measurers T. Linder, R. Holmes, L. Horn.  0.76-m f/3.0 astrograph + CCD.
I52 Steward Observatory, Mt. Lemmon Station.  Observers V. F. Carvajal, D.
    Rankin.  Measurers T. Beuden, V. F. Carvajal, D. Fay, J. B. Fazekas, D. C.
    Fuls, A. R. Gibbs, A. D. Grauer, H. Groeller, J. K. Hogan, R. A. Kowalski,
    S. M. Larson, G. J. Leonard, D. Rankin, R. L. Seaman, F. C. Shelly, K. W.
    Wierzchos.  1.0-m prime focus + CCD.
I93 St Pardon de Conques.  Observer F. Losse.  0.40-m f/3.7 reflector + CCD.
Orbital elements:
2024 GR5                                                 Earth MOID = 0.1240 AU
Epoch 2024 Mar. 31.0 TT = JDT 2460400.5                 Veres                   
M   0.53041              (2000.0)            P               Q                  
n   0.23303863     Peri.  345.41274     -0.99718792     +0.02166931             
a   2.6152754      Node   196.34465     -0.00992380     -0.98703545             
e   0.5735149      Incl.   14.76931     -0.07428167     -0.15903292             
P   4.23           H   23.74          G   0.15           U   9                  
Residuals in seconds of arc
240412 G96  0.4+  0.3+    240412 H01  0.2-  0.1-    240413 H21 (0.3-  1.0+)
240412 G96  0.3-  0.0     240412 H01  0.0   0.0     240413 H21 (0.6-  1.5+)
240412 G96  0.3+  0.8-    240412 I52  0.3-  0.4+    240413 I52  0.4+  0.8+
240412 G96  0.2+  0.2+    240412 I52  0.1+  0.1+    240413 I52  0.2+  0.3-
240412 I52  0.1-  0.3-    240412 033  0.7+  0.1+    240413 I52  0.4+  0.0
240412 I52  0.2-  0.0     240412 033  2.4+  0.9-    240414 I52  0.3+  0.3-
240412 I52  0.1+  0.4-    240412 204  0.5-  0.1-    240414 I52  0.1+  0.2+
240412 I52  0.2-  0.1-    240412 I93  1.0-  0.4-    240414 I52  0.7-  0.2+
240412 H01  0.1-  0.0     240413 I93  0.6-  0.6-
240412 H01  0.1-  0.1+    240413 H21 (0.6-  0.9+)
Ephemeris:
2024 GR5                 a,e,i = 2.62, 0.57, 15                  q = 1.1154
Date    TT    R. A. (2000) Decl.     Delta      r    Elong.  Phase     V
2024 03 15    08 03 24.1 -19 46 02   0.2199  1.1281   122.5    48.0    22.5
...
2024 03 30    09 12 11.2 -07 18 48   0.1713  1.1155   129.5    43.7    21.8
...
2024 04 07    10 07 27.7 +02 17 25   0.1617  1.1212   135.0    39.1    21.6
...
2024 04 13    10 53 56.4 +09 27 19   0.1657  1.1311   137.9    36.5    21.6
2024 04 14    11 01 45.7 +10 32 27   0.1674  1.1332   138.2    36.2    21.6
2024 04 15    11 09 32.6 +11 34 53   0.1694  1.1354   138.4    35.9    21.6
...
2024 04 21    11 54 18.3 +16 44 20   0.1865  1.1514   138.6    35.3    21.8
...
2024 04 29    12 45 09.8 +20 39 42   0.2218  1.1791   137.1    35.6    22.3
...
2024 05 14    13 50 27.0 +21 46 33   0.3144  1.2484   133.6    35.9    23.2
M. P. C. Staff               (C) Copyright 2024 MPC           M.P.E.C. 2024-G204
    
    
More information about the Iaude
mailing list